www.pogodaiklimat.ru

Погода и климат >> Архив погоды >> Россия >> Магаданская область >> Сусуман


ПОГОДА в Сусумане

  • Прогноз погоды в Сусумане
  • Монитор погоды в Сусумане
  • Климат города

АРХИВ ПОГОДЫ в Сусумане

Время (UTC), дата Ветер
(напр.,м/с)
 
Видим.   Явления Облачность Т
(С)
Тd
(С)
f
(%)
Тe
(С)
Тes
(С)
Комфортность P
(гПа)
Po
(гПа)
Тmin
(С)
Tmax
(С)
R
(мм)
R24
(мм)
S
(см)
21 15.10 штиль 0 50 км 3/0
[Ci fib]
-26.8 -29.1 81 -27 -27 1037.1 947.7 -26.8 26
00 16.10 С 1 50 км 6/0
[Ci fib]
-18.8 -21.1 82 -22 -21 1035.0 948.5 -27.1
03 16.10 СЗ 1 50 км ясно -12.0 -16.8 67 -14 -12 1032.3 948.1
06 16.10 ЮЗ 1 50 км ясно -10.4 -15.8 65 -13 -12 1031.6 948.0
09 16.10 ЮЗ 2 50 км ясно -19.3 -21.1 86 -25 -25 1035.4 948.7 -8.2
12 16.10 Ю 1 50 км ясно -24.3 -26.3 83 -28 -28 1037.0 948.5
15 16.10 В 1 50 км ясно -25.5 -27.6 82 -29 -29 1036.8 947.9
18 16.10 штиль 0 50 км ясно -26.4 -28.8 80 -26 -26 1036.3 947.2
21 16.10 штиль 0 50 км 3/0
[Ci fib]
-27.9 -30.3 80 -28 -28 1036.1 946.5 -28.5 26
00 17.10 штиль 0 50 км ясно -19.0 -22.1 76 -19 -18 1031.9 945.6
03 17.10 ЮЗ 1 50 км ясно -14.1 -19.1 66 -17 -15 1028.1 943.6
06 17.10 ЮЗ 1 50 км ясно -12.9 -18.0 66 -15 -15 1025.8 941.9
09 17.10 Ю 3 50 км ясно -22.6 -24.3 86 -31 -31 опасность
обморожения
1028.7 941.5 -12.5
12 17.10 В 2 50 км ясно -25.7 -28.0 81 -32 -32 опасность
обморожения
1028.8 940.5
15 17.10 штиль 0 н/о н/о -27.2 -29.6 80 -27 -27 1028.1 939.3
18 17.10 В 1 50 км ясно -28.8 -31.3 79 -33 -33 опасность
обморожения
1026.9 937.7
21 17.10 СВ 1 50 км ясно -29.5 -32.2 77 -34 -34 опасность
обморожения
1026.7 937.3 -29.8 26
00 18.10 С 2 50 км ясно -22.4 -24.9 80 -29 -28 1022.8 936.1
03 18.10 штиль 0 50 км ясно -13.7 -19.7 60 -14 -12 1017.8 934.3
06 18.10 ЮЗ 1 50 км ясно -14.3 -19.7 64 -17 -17 1016.7 933.1
09 18.10 штиль 0 50 км ясно -23.6 -25.6 84 -24 -24 1020.7 933.8 -11.7
12 18.10 В 1 50 км ясно -26.3 -28.6 81 -30 -30 1022.0 934.1
15 18.10 В 1 50 км ясно -28.4 -30.9 79 -32 -32 опасность
обморожения
1023.1 934.3
18 18.10 штиль 0 50 км ясно -29.8 -32.5 77 -30 -30 1023.9 934.6
21 18.10 В 1 50 км ясно -29.9 -32.6 77 -34 -34 опасность
обморожения
1024.6 935.2 -30.5 26
00 19.10 С 1 50 км ясно -23.1 -25.8 78 -26 -25 1022.0 935.2
03 19.10 Ю 1 50 км ясно -16.8 -22.2 63 -20 -18 1018.7 934.2
06 19.10 Ю 1 50 км ясно -15.4 -21.0 62 -18 -18 1018.1 934.0
09 19.10 Ю 1 50 км ясно -24.4 -26.6 82 -28 -28 1022.0 934.8 -14.2
12 19.10 В 1 50 км ясно -26.6 -28.9 81 -30 -30 1023.2 935.1
15 19.10 СВ 1 50 км ясно -28.6 -31.1 79 -33 -33 опасность
обморожения
1024.2 935.3
18 19.10 В 1 50 км ясно -29.1 -31.7 78 -33 -33 опасность
обморожения
1024.2 935.2
21 19.10 СВ 1 50 км 5/5 1000 м
[Sc]
-26.5 -28.9 80 -30 -30 1024.0 935.9 -29.4 26
00 20.10 штиль 0 50 км 6/4 1000 м
[Sc Ac trans]
-23.3 -25.6 81 -23 -23 1023.4 936.3
03 20.10 штиль 0 50 км 9/3 1000 м
[Sc Ac trans]
-18.1 -22.1 71 -18 -18 1021.0 935.9
06 20.10 ЮЗ 1 50 км 9/3 1000 м
[Sc Ac trans]
-16.2 -20.0 72 -19 -19 1020.8 936.3
09 20.10 Ю 1 50 км 9/3 1000 м
[Sc Ac trans]
-16.8 -19.5 80 -20 -20 1022.6 937.7 -16.2
12 20.10 штиль 0 50 км 9/3 1000 м
[Sc Ac trans]
-15.8 -18.6 79 -16 -16 1023.1 938.5
15 20.10 СВ 2 50 км 10/10 1080 м
[Sc]
-16.0 -19.3 76 -21 -21 1023.8 939.1
18 20.10 СВ 2 50 км 10/10 1110 м
[Sc]
-17.6 -20.8 76 -23 -23 1025.3 940.0
21 20.10 СВ 3 50 км 9/9 1170 м
[Sc]
-20.5 -23.5 77 -28 -28 1027.2 940.8 -20.5 26
00 21.10 СВ 3 50 км 9/9 1080 м
[Sc]
-19.4 -23.1 72 -27 -27 1027.3 941.2 -20.6
03 21.10 СВ 3 50 км 9/9 1170 м
[Sc]
-17.1 -21.2 70 -24 -24 1025.9 940.7
06 21.10 СВ 1 50 км 10/10 1110 м
[Sc]
-16.3 -20.5 70 -19 -19 1025.5 940.5
09 21.10 штиль 0 50 км 10/10 1080 м
[Sc]
-16.4 -19.8 75 -16 -16 1025.5 940.5 -15.4
12 21.10 СВ 2 н/о н/о -16.8 -20.3 74 -22 -22 1025.8 940.7
15 21.10 СВ 2 н/о н/о -18.7 -21.8 76 -24 -24 1026.4 940.6
18 21.10 В 2 н/о н/о -21.6 -24.0 81 -28 -28 1027.5 940.7
21 21.10 СВ 2 н/о н/о -25.0 -27.2 82 -32 -32 опасность
обморожения
1029.1 941.0 -25.0
00 22.10 СВ 1 50 км 6/0 1000 м
[Ci fib]
-22.4 -25.6 75 -26 -25 1027.9 940.8 -25.6
03 22.10 ЮЗ 1 50 км 3/0
[Ci fib]
-15.6 -22.1 57 -18 -17 1024.4 939.8
06 22.10 Ю 1 50 км ясно -15.8 -21.2 63 -18 -18 1024.0 939.3
09 22.10 ЮЗ 1 50 км 3/0
[Ci fib]
-23.1 -25.7 79 -26 -26 1026.6 939.4 -13.3
12 22.10 В 1 50 км 3/0
[Ci fib]
-27.3 -29.6 81 -31 -31 опасность
обморожения
1028.3 939.5
15 22.10 В 1 50 км ясно -28.3 -30.9 78 -32 -32 опасность
обморожения
1028.4 939.2
18 22.10 штиль 0 50 км ясно -30.4 -33.2 76 -30 -30 1029.3 939.3

 

Местоположение метеостанции Сусуман (Магаданская область, Россия): широта 62.78 долгота 148.10 высота над уровнем моря 655 м.

В архиве по умолчанию представлена погода в Сусумане за последнюю неделю. Архивные данные за месяц целиком и за предыдущие месяцы, начиная с января 2011 года, Вы можете получить, выбрав интересующий диапазон дат из раскрывающегося списка и нажав кнопку "Ввод!".


*Определитесь, кто Вы:
робот инопланетянин человек

Внимание! Время в таблицах - всемирное. Для получения местного времени необходимо прибавить поправку, которая в Сусумане равна 11 ч.

Смотрите также архив погоды в соседних городах и на ближайших метеорологических станциях:

Погода в Ягодной (Магаданская область, Россия) (82 км)
Погода в Озере Джека Лондона (Магаданская область, Россия) (106 км)
Погода в Колымской (Магаданская область, Россия) (107 км)
Погода в Совхозе Эльген (Магаданская область, Россия) (127 км)
Погода в Усть-Бохапче (Магаданская область, Россия) (149 км)
Погода в Делянкире (Якутия, Россия) (171 км)
Погода в Усть-Омчуге (Магаданская область, Россия) (201 км)
Погода в Среднекане (Магаданская область, Россия) (218 км)
Погода в Сеймчане (Магаданская область, Россия) (219 км)
Погода в Оймяконе (Якутия, Россия) (258 км)

Пояснения к столбцам:

Ветер - указаны скорость ветра в м/с - средняя за 10 мин, порывы в срок и между сроками (в фигурных скобках) и направление, откуда дует ветер: С - северный, СВ - северо-восточный, В - восточный, ЮВ - юго-восточный, Ю - южный, ЮЗ - юго-западный, З - западный, СЗ - северо-западный.
Видимость - горизонтальная дальность видимости в метрах или километрах. При видимости от 1 до 10 км при отсутствии осадков обычно наблюдается дымка, при ухудшении видимости до 1 км и менее - туман. В сухую погоду видимость может ухудшаться дымом, пылью или мглою.
Явления - указаны атмосферные явления, наблюдавшиеся в срок или в последний час перед сроком; фигурными скобками обозначены явления, наблюдавшиеся между сроками (за 1-3 часа до срока); квадратными скобками обозначены град или гололедные отложения с указанием их диаметра в мм.
Облачность - указаны через наклонную черту общая и нижняя облачность в баллах и высота нижней границы облаков в метрах; квадратными скобками обозначены формы облаков: Ci - перистые, Cs - перисто-слоистые, Cc - перисто-кучевые, Ac - высококучевые, As - высокослоистые, Sc - слоисто-кучевые, Ns - слоисто-дождевые, Cu - кучевые, Cb - кучево-дождевые. Подробнее классификацию облаков см. в Атласе облаков (PDF).
T - Температура воздуха - температура, измеренная на высоте 2 м над землей.
Td - Температура точки росы - температура, при понижении до которой содержащийся в воздухе водяной пар достигнет насыщения.
f - Относительная влажность воздуха - влажноcть воздуха, измеренная на высоте 2 м над землей.
Te - Эффективная температура - температура, которую ощущает одетый по сезону человек в тени. Характеристика душности погоды. При расчете учитывается влияние влажности воздуха и скорости ветра на теплоощущения человека.
Tes - Эффективная температура на солнце - температура, которую ощущает человек, с поправкой на солнечный нагрев. Характеристика знойности погоды. Зависит от высоты солнца над горизонтом, облачности и скорости ветра. Ночью, в пасмурную погоду, а также при ветре 12 м/с и более поправка равна нулю.
P - Атмосферное давление - приведенное к уровню моря атмосферное давление.
Po - Атмосферное давление - измеренное на уровне метеостанции атмосферное давление.
Tmin - Минимальная температура - минимум температуры воздуха на высоте 2 м над землей.
Tmax - Максимальная температура - максимум температуры воздуха на высоте 2 м над землей.
R - Количество осадков - Количество выпавших осадков за период времени, мм. При наведении курсора мыши на число - период времени, за который выпало указанное количество осадков.
R24 - Количество осадков - Количество выпавших осадков за 24 часа, мм.
S - Снежный покров - Высота снежного покрова, см. При наведении курсора мыши на число - состояние снежного покрова и степень покрытия местности в баллах.